When you browse on this site, cookies collect data to enhance your experience and personalize the content and advertising you see.
Visit our Privacy Policy to learn more. By continuing to use the site, you agree to this use of cookies and data.
EN

Hourly Weather Caracas

Today, 12 August, Wednesday

Time Temperature Precipitation Wind Pressure Humidity
00:00 +17°C° 0 mm 2 mps 648 mmHg 93%
01:00 +17°C° 0 mm 2 mps 648 mmHg 93%
02:00 +17°C° 0 mm 2 mps 648 mmHg 93%
03:00 +17°C° 0 mm 2 mps 648 mmHg 93%
04:00 +17°C° 0 mm 2 mps 647 mmHg 93%
05:00 +16°C° 0 mm 2 mps 647 mmHg 92%
06:00 +18°C° 0 mm 2 mps 648 mmHg 89%
07:00 +19°C° 0 mm 2 mps 648 mmHg 86%
08:00 +21°C° 0 mm 1 mps 649 mmHg 83%
09:00 +23°C° 0 mm 2 mps 649 mmHg 76%
10:00 +24°C° 0 mm 2 mps 650 mmHg 69%
11:00 +26°C° 0 mm 2 mps 650 mmHg 63%
12:00 +26°C° 0.9 mm 2 mps 650 mmHg 68%
13:00 +25°C° 0.9 mm 2 mps 649 mmHg 73%
14:00 +25°C° 0.9 mm 2 mps 648 mmHg 78%
15:00 +24°C° 1.1 mm 2 mps 648 mmHg 83%
16:00 +23°C° 1.1 mm 2 mps 647 mmHg 87%
17:00 +21°C° 1.1 mm 2 mps 647 mmHg 91%
18:00 +21°C° 0.3 mm 2 mps 647 mmHg 93%
19:00 +20°C° 0.3 mm 2 mps 647 mmHg 94%
20:00 +19°C° 0.3 mm 2 mps 647 mmHg 95%
21:00 +19°C° 0.1 mm 2 mps 648 mmHg 95%
22:00 +19°C° 0.1 mm 2 mps 648 mmHg 95%
23:00 +19°C° 0.1 mm 2 mps 648 mmHg 95%

Tomorrow, 13 August, Thursday

Time Temperature Precipitation Wind Pressure Humidity
00:00 +18°C° 0 mm 2 mps 648 mmHg 95%
01:00 +18°C° 0 mm 2 mps 648 mmHg 95%
02:00 +18°C° 0 mm 2 mps 647 mmHg 95%
03:00 +18°C° 0 mm 2 mps 647 mmHg 95%
04:00 +18°C° 0 mm 2 mps 647 mmHg 95%
05:00 +18°C° 0 mm 2 mps 647 mmHg 95%
06:00 +18°C° 0 mm 2 mps 647 mmHg 94%
07:00 +19°C° 0 mm 2 mps 648 mmHg 93%
08:00 +19°C° 0 mm 2 mps 648 mmHg 92%
09:00 +21°C° 0 mm 2 mps 649 mmHg 82%
10:00 +24°C° 0 mm 3 mps 650 mmHg 73%
11:00 +26°C° 0 mm 3 mps 650 mmHg 63%
12:00 +26°C° 0.1 mm 3 mps 650 mmHg 62%
13:00 +26°C° 0.1 mm 3 mps 649 mmHg 61%
14:00 +27°C° 0.1 mm 3 mps 649 mmHg 61%
15:00 +25°C° 0.6 mm 3 mps 648 mmHg 70%
16:00 +24°C° 0.6 mm 3 mps 647 mmHg 79%
17:00 +22°C° 0.6 mm 3 mps 647 mmHg 88%
18:00 +21°C° 0.5 mm 3 mps 647 mmHg 90%
19:00 +20°C° 0.5 mm 3 mps 647 mmHg 92%
20:00 +19°C° 0.5 mm 3 mps 648 mmHg 94%
21:00 +18°C° 0 mm 3 mps 648 mmHg 94%
22:00 +18°C° 0 mm 3 mps 648 mmHg 94%
23:00 +18°C° 0 mm 3 mps 648 mmHg 94%

Day after tomorrow, 14 August, Friday

Time Temperature Precipitation Wind Pressure Humidity
00:00 +18°C° 0 mm 3 mps 647 mmHg 94%
01:00 +17°C° 0 mm 2 mps 647 mmHg 94%
02:00 +17°C° 0 mm 2 mps 647 mmHg 94%
03:00 +17°C° 0 mm 2 mps 647 mmHg 94%
04:00 +17°C° 0 mm 2 mps 646 mmHg 94%
05:00 +17°C° 0 mm 2 mps 646 mmHg 94%
06:00 +18°C° 0 mm 2 mps 647 mmHg 93%
07:00 +19°C° 0 mm 2 mps 648 mmHg 92%
08:00 +19°C° 0 mm 2 mps 648 mmHg 91%
09:00 +21°C° 0 mm 2 mps 649 mmHg 82%
10:00 +24°C° 0 mm 2 mps 649 mmHg 73%
11:00 +26°C° 0 mm 2 mps 650 mmHg 64%
12:00 +26°C° 0.3 mm 3 mps 649 mmHg 68%
13:00 +25°C° 0.3 mm 3 mps 649 mmHg 72%
14:00 +25°C° 0.3 mm 3 mps 648 mmHg 76%
15:00 +24°C° 0.3 mm 3 mps 648 mmHg 77%
16:00 +24°C° 0.3 mm 3 mps 647 mmHg 78%
17:00 +24°C° 0.3 mm 3 mps 647 mmHg 79%
18:00 +21°C° 0 mm 3 mps 647 mmHg 83%
19:00 +20°C° 0 mm 2 mps 647 mmHg 88%
20:00 +18°C° 0 mm 2 mps 647 mmHg 92%
21:00 +18°C° 0 mm 2 mps 647 mmHg 92%
22:00 +18°C° 0 mm 2 mps 647 mmHg 93%
23:00 +17°C° 0 mm 2 mps 648 mmHg 93%

15 August, Saturday

Time Temperature Precipitation Wind Pressure Humidity
00:00 +17°C° 0 mm 2 mps 647 mmHg 93%
01:00 +17°C° 0 mm 2 mps 647 mmHg 92%
02:00 +17°C° 0 mm 2 mps 647 mmHg 92%
03:00 +17°C° 0 mm 2 mps 646 mmHg 92%
04:00 +17°C° 0 mm 2 mps 646 mmHg 91%
05:00 +17°C° 0 mm 2 mps 646 mmHg 91%
06:00 +18°C° 0 mm 2 mps 647 mmHg 88%
07:00 +19°C° 0 mm 2 mps 647 mmHg 85%
08:00 +20°C° 0 mm 2 mps 648 mmHg 83%
09:00 +23°C° 0 mm 2 mps 649 mmHg 75%
10:00 +25°C° 0 mm 2 mps 649 mmHg 67%
11:00 +27°C° 0 mm 2 mps 650 mmHg 59%
12:00 +27°C° 0.2 mm 2 mps 649 mmHg 61%
13:00 +27°C° 0.2 mm 2 mps 649 mmHg 62%
14:00 +27°C° 0.2 mm 2 mps 648 mmHg 63%
15:00 +26°C° 0.6 mm 2 mps 648 mmHg 71%
16:00 +25°C° 0.6 mm 2 mps 647 mmHg 78%
17:00 +24°C° 0.6 mm 1 mps 646 mmHg 86%
18:00 +23°C° 0.3 mm 1 mps 646 mmHg 88%
19:00 +20°C° 0.3 mm 2 mps 646 mmHg 91%
20:00 +19°C° 0.3 mm 2 mps 647 mmHg 93%
21:00 +19°C° 0.3 mm 2 mps 647 mmHg 93%
22:00 +19°C° 0.3 mm 2 mps 647 mmHg 92%
23:00 +18°C° 0.3 mm 2 mps 648 mmHg 92%

16 August, Sunday

Time Temperature Precipitation Wind Pressure Humidity
00:00 +18°C° 0.1 mm 2 mps 647 mmHg 91%
01:00 +18°C° 0.1 mm 2 mps 647 mmHg 91%
02:00 +18°C° 0.1 mm 2 mps 646 mmHg 90%
03:00 +19°C° 0 mm 1 mps 646 mmHg 89%
04:00 +18°C° 0 mm 1 mps 646 mmHg 88%
05:00 +18°C° 0 mm 1 mps 646 mmHg 87%
06:00 +19°C° 0 mm 1 mps 647 mmHg 85%
07:00 +20°C° 0 mm 1 mps 647 mmHg 83%
08:00 +21°C° 0 mm 1 mps 648 mmHg 81%
09:00 +23°C° 0 mm 1 mps 649 mmHg 73%
10:00 +25°C° 0 mm 2 mps 649 mmHg 65%
11:00 +26°C° 0 mm 2 mps 650 mmHg 57%
12:00 +26°C° 0.5 mm 2 mps 649 mmHg 62%
13:00 +26°C° 0.5 mm 2 mps 649 mmHg 66%
14:00 +26°C° 0.5 mm 2 mps 648 mmHg 71%
15:00 +25°C° 0.9 mm 1 mps 647 mmHg 75%
16:00 +25°C° 0.9 mm 1 mps 647 mmHg 80%
17:00 +24°C° 0.9 mm 1 mps 646 mmHg 84%
18:00 +23°C° 0.1 mm 1 mps 646 mmHg 87%
19:00 +20°C° 0.1 mm 2 mps 646 mmHg 89%
20:00 +19°C° 0.1 mm 2 mps 647 mmHg 92%
21:00 +19°C° 0.1 mm 2 mps 647 mmHg 93%
22:00 +19°C° 0.1 mm 2 mps 647 mmHg 93%
23:00 +18°C° 0.1 mm 2 mps 648 mmHg 93%

17 August, Monday

Time Temperature Precipitation Wind Pressure Humidity
00:00 +18°C° 0.1 mm 2 mps 647 mmHg 93%
01:00 +18°C° 0.1 mm 2 mps 647 mmHg 93%
02:00 +19°C° 0.1 mm 1 mps 646 mmHg 93%
03:00 +19°C° 0 mm 1 mps 646 mmHg 93%
04:00 +18°C° 0 mm 1 mps 646 mmHg 92%
05:00 +18°C° 0 mm 1 mps 646 mmHg 92%
06:00 +19°C° 0 mm 1 mps 647 mmHg 91%
07:00 +20°C° 0 mm 1 mps 648 mmHg 89%
08:00 +21°C° 0 mm 1 mps 648 mmHg 88%
09:00 +23°C° 0.2 mm 2 mps 649 mmHg 81%
10:00 +24°C° 0.2 mm 2 mps 649 mmHg 75%
11:00 +26°C° 0.2 mm 2 mps 650 mmHg 69%
12:00 +26°C° 0.7 mm 2 mps 649 mmHg 69%
13:00 +26°C° 0.7 mm 2 mps 649 mmHg 69%
14:00 +26°C° 0.7 mm 2 mps 648 mmHg 70%
15:00 +25°C° 0.9 mm 2 mps 648 mmHg 75%
16:00 +24°C° 0.9 mm 2 mps 647 mmHg 80%
17:00 +24°C° 0.9 mm 2 mps 647 mmHg 85%
18:00 +23°C° 0.6 mm 2 mps 647 mmHg 88%
19:00 +20°C° 0.6 mm 2 mps 647 mmHg 91%
20:00 +19°C° 0.6 mm 2 mps 647 mmHg 95%
21:00 +19°C° 0.6 mm 2 mps 647 mmHg 94%
22:00 +19°C° 0.6 mm 2 mps 648 mmHg 93%
23:00 +19°C° 0.6 mm 2 mps 648 mmHg 93%
Show more